Weather History for Columbus, GA

Change the Weather History Date:

Wednesday, November 21, 2012

  Actual Average Record
Temperature  
Mean Temperature 60 °F 56 °F  
Max Temperature 75 °F 67 °F 81 °F (2011)
Min Temperature 45 °F 45 °F 26 °F (1968)
Degree Days  
Heating Degree Days 5 10  
Month to date heating degree days 167 154  
Since 1 July heating degree days 219 230  
Cooling Degree Days 0 0  
Month to date cooling degree days 7 23  
Year to date cooling degree days 2614 2363  
Growing Degree Days 9 (Base 50)    
Moisture  
Dew Point 44 °F    
Average Humidity 62    
Maximum Humidity 92    
Minimum Humidity 31    
Precipitation  
Precipitation 0.00 in 0.16 in 3.70 in (1991)
Month to date precipitation 0.60 2.68  
Year to date precipitation 29.45 41.06  
Snow  
Snow 0.00 in 0.00 in 0.00 in (2001)
Month to date snowfall 0.0 0.0  
Since 1 July snowfall 0.0 0.0  
Since 1 September snowfall 0.0 0.0  
Snow Depth -    
Sea Level Pressure  
Sea Level Pressure 30.12 in    
Wind  
Wind Speed 3 mph (NNE)    
Max Wind Speed 13 mph    
Max Gust Speed 17 mph    
Visibility 10 miles    
Events      
T = Trace of Precipitation, MM = Missing Value Source: NWS Daily Summary

Daily Weather History Graph

Daily Weather History Graph

Search for Another Location

Airport:

Trip Planner

Search our weather history database for the weather conditions in past years. The results will help you decide how hot, cold, wet, or windy it might be!

Date:

Astronomy

Nov. 21, 2012 Rise Set
Actual Time 7:15 AM EST 5:36 PM EST
Civil Twilight 6:48 AM EST 6:02 PM EST
Nautical Twilight 6:18 AM EST 6:32 PM EST
Astronomical Twilight 5:49 AM EST 7:01 PM EST
Moon 1:33 PM EST (11/21) 12:54 AM EST (11/21)
Length of Visible Light 11h 13m
Length of Day
10h 20m
First Quarter, 61% of the Moon is Illuminated
Nov 21
First Quarter
Nov 28
Full
Dec 6
Last Quarter
Dec 13
New
Dec 20
First Quarter

Hourly Weather History & Observations

Time (EST) Temp. Dew Point Humidity Pressure Visibility Wind Dir Wind Speed Gust Speed Precip Events Conditions
12:51 AM 51.1 °F 45.0 °F 80% 30.11 in 10.0 mi Calm Calm - N/A   Clear
1:51 AM 50.0 °F 45.0 °F 83% 30.10 in 10.0 mi Calm Calm - N/A   Clear
2:51 AM 48.0 °F 44.1 °F 86% 30.10 in 10.0 mi Calm Calm - N/A   Clear
3:51 AM 48.9 °F 44.1 °F 83% 30.10 in 10.0 mi Calm Calm - N/A   Clear
4:51 AM 46.9 °F 43.0 °F 86% 30.10 in 10.0 mi Calm Calm - N/A   Clear
5:51 AM 46.0 °F 42.1 °F 86% 30.10 in 10.0 mi Calm Calm - N/A   Clear
6:51 AM 45.0 °F 42.1 °F 90% 30.12 in 10.0 mi Calm Calm - N/A   Clear
7:51 AM 46.0 °F 42.1 °F 86% 30.14 in 10.0 mi Calm Calm - N/A   Clear
8:51 AM 52.0 °F 46.0 °F 80% 30.14 in 10.0 mi Calm Calm - N/A   Clear
9:51 AM 61.0 °F 45.0 °F 56% 30.16 in 10.0 mi North 5.8 mph - N/A   Clear
10:51 AM 66.9 °F 45.0 °F 45% 30.16 in 10.0 mi NNE 4.6 mph - N/A   Clear
11:51 AM 70.0 °F 44.1 °F 39% 30.14 in 10.0 mi Variable 5.8 mph - N/A   Clear
12:51 PM 71.6 °F 42.8 °F 35% 30.12 in 10.0 mi ENE 4.6 mph - N/A   Scattered Clouds
1:51 PM 72.0 °F 42.1 °F 34% 30.10 in 10.0 mi NE 5.8 mph - N/A   Scattered Clouds
2:51 PM 73.9 °F 42.1 °F 32% 30.09 in 10.0 mi NNW 11.5 mph - N/A   Scattered Clouds
3:51 PM 73.9 °F 41.0 °F 30% 30.09 in 10.0 mi NNW 8.1 mph - N/A   Scattered Clouds
4:51 PM 72.0 °F 42.1 °F 34% 30.09 in 10.0 mi NNE 3.5 mph - N/A   Partly Cloudy
5:51 PM 68.0 °F 44.1 °F 42% 30.11 in 10.0 mi North 3.5 mph - N/A   Clear
6:51 PM 62.1 °F 45.0 °F 53% 30.13 in 10.0 mi NE 3.5 mph - N/A   Clear
7:51 PM 59.0 °F 45.0 °F 60% 30.14 in 10.0 mi NNE 3.5 mph - N/A   Clear
8:51 PM 57.0 °F 45.0 °F 64% 30.14 in 10.0 mi Calm Calm - N/A   Clear
9:51 PM 54.0 °F 45.0 °F 72% 30.16 in 10.0 mi Calm Calm - N/A   Clear
10:51 PM 52.0 °F 44.1 °F 74% 30.16 in 9.0 mi Calm Calm - N/A   Clear
11:51 PM 50.0 °F 44.1 °F 80% 30.16 in 10.0 mi Calm Calm - N/A   Clear